DW5656 Weather Reports


time (UTC)temp
F
wind
direction
speed
knots
gust
knots
rain 1hr
in
rain 24hr
in
rain mn
in
humidity
%
barometer
mb
20200922211113 73 245 4.3 7.0 0.00 0.00 0.00 66 1014.0
20200922210221 73 260 3.5 8.7 0.00 0.00 0.00 66 1014.0
20200922205313 74 244 3.5 7.8 0.00 0.00 0.00 65 1014.0
20200922204413 74 254 5.2 9.6 0.00 0.00 0.00 64 1013.8
20200922203513 74 266 6.1 13.9 0.00 0.00 0.00 64 1013.7
20200922202613 74 269 7.0 13.0 0.00 0.00 0.00 63 1013.7
20200922201715 74 264 5.2 13.0 0.00 0.00 0.00 62 1013.7
20200922200820 75 268 5.2 12.2 0.00 0.00 0.00 61 1013.7
20200922195913 75 259 4.3 12.2 0.00 0.00 0.00 60 1013.4
20200922195013 75 243 3.5 7.8 0.00 0.00 0.00 60 1013.1
20200922194114 75 243 4.3 11.3 0.00 0.00 0.00 59 1013.1
20200922193215 76 243 5.2 12.2 0.00 0.00 0.00 59 1013.1
20200922192313 76 244 4.3 12.2 0.00 0.00 0.00 59 1013.1
20200922191415 76 257 4.3 9.6 0.00 0.00 0.00 57 1013.0
20200922190513 77 253 4.3 10.4 0.00 0.00 0.00 56 1013.0
20200922185614 77 260 3.5 12.2 0.00 0.00 0.00 55 1012.9
20200922184713 78 266 2.6 7.8 0.00 0.00 0.00 54 1012.9
20200922183821 78 257 4.3 11.3 0.00 0.00 0.00 54 1012.6
20200922182913 78 241 6.1 13.0 0.00 0.00 0.00 53 1012.5
20200922182014 78 240 6.1 13.0 0.00 0.00 0.00 53 1012.6
20200922181114 79 244 5.2 13.0 0.00 0.00 0.00 53 1012.5
20200922180215 79 245 6.1 11.3 0.00 0.00 0.00 53 1012.2
20200922175312 80 244 5.2 13.9 0.00 0.00 0.00 52 1012.2
20200922174412 80 223 6.1 13.9 0.00 0.00 0.00 53 1012.1
20200922173515 80 218 6.1 13.0 0.00 0.00 0.00 53 1012.0
20200922172612 81 219 5.2 14.8 0.00 0.00 0.00 52 1011.8
20200922171712 82 221 5.2 11.3 0.00 0.00 0.00 51 1011.7
20200922170813 82 224 5.2 11.3 0.00 0.00 0.00 50 1011.6
20200922165912 82 210 6.1 12.2 0.00 0.00 0.00 50 1011.6
20200922165014 82 217 5.2 11.3 0.00 0.00 0.00 49 1011.6
20200922164113 83 230 4.3 10.4 0.00 0.00 0.00 49 1011.6
20200922163212 83 215 5.2 13.0 0.00 0.00 0.00 49 1011.7
20200922162313 83 227 5.2 13.0 0.00 0.00 0.00 48 1011.9
20200922161414 83 218 5.2 13.9 0.00 0.00 0.00 48 1012.0
20200922160512 83 211 5.2 12.2 0.00 0.00 0.00 48 1012.1
20200922155617 83 209 5.2 12.2 0.00 0.00 0.00 49 1012.1
20200922154712 83 218 5.2 10.4 0.00 0.00 0.00 49 1012.1
20200922153816 84 230 5.2 10.4 0.00 0.00 0.00 48 1012.2
20200922152912 84 226 4.3 10.4 0.00 0.00 0.00 47 1012.2
20200922152015 84 238 4.3 8.7 0.00 0.00 0.00 46 1012.3
20200922151112 83 222 4.3 8.7 0.00 0.00 0.00 46 1012.3
20200922150215 84 225 3.5 8.7 0.00 0.00 0.00 46 1012.4
20200922145312 84 228 3.5 7.0 0.00 0.00 0.00 46 1012.5
20200922144412 84 224 2.6 8.7 0.00 0.00 0.00 47 1012.5
20200922143512 84 186 2.6 6.1 0.00 0.00 0.00 46 1012.5
20200922142614 83 230 2.6 7.8 0.00 0.00 0.00 47 1012.6
20200922141712 83 206 4.3 7.0 0.00 0.00 0.00 46 1012.8
20200922140812 83 211 2.6 9.6 0.00 0.00 0.00 45 1012.8
20200922135912 84 302 1.7 6.1 0.00 0.00 0.00 45 1012.9
20200922135012 83 271 2.6 3.5 0.00 0.00 0.00 45 1013.1
20200922134112 83 208 3.5 8.7 0.00 0.00 0.00 45 1013.2
20200922133212 83 156 3.5 8.7 0.00 0.00 0.00 46 1013.1
20200922132315 83 182 3.5 8.7 0.00 0.00 0.00 45 1013.5
20200922131411 83 190 3.5 9.6 0.00 0.00 0.00 46 1013.8
20200922130518 83 159 2.6 7.8 0.00 0.00 0.00 45 1013.9
20200922125612 83 220 1.7 7.8 0.00 0.00 0.00 44 1014.1
20200922124712 83 265 2.6 7.0 0.00 0.00 0.00 44 1014.1
20200922123814 83 245 1.7 7.0 0.00 0.00 0.00 44 1014.1
20200922122914 82 223 2.6 6.1 0.00 0.00 0.00 45 1014.2
20200922122016 82 207 2.6 7.0 0.00 0.00 0.00 45 1014.4
20200922121112 82 287 2.6 4.3 0.00 0.00 0.00 46 1014.4
20200922120215 81 253 2.6 6.1 0.00 0.00 0.00 46 1014.5
20200922115312 81 261 2.6 7.8 0.00 0.00 0.00 45 1014.5
20200922114412 82 136 0.9 3.5 0.00 0.00 0.00 46 1014.5
20200922113511 81 281 1.7 2.6 0.00 0.00 0.00 48 1014.4
20200922112611 81 257 0.9 6.1 0.00 0.00 0.00 47 1014.5
20200922111711 81 153 1.7 4.3 0.00 0.00 0.00 48 1014.6
20200922110814 80 164 1.7 5.2 0.00 0.00 0.00 49 1014.6
20200922105911 80 161 0.9 5.2 0.00 0.00 0.00 51 1014.7
20200922105011 79 72 2.6 6.1 0.00 0.00 0.00 52 1014.8
20200922104113 79 106 1.7 5.2 0.00 0.00 0.00 52 1014.7
20200922103214 79 114 1.7 5.2 0.00 0.00 0.00 52 1014.8
20200922102312 79 55 0.9 5.2 0.00 0.00 0.00 53 1014.8
20200922101411 77 21 1.7 3.5 0.00 0.00 0.00 55 1014.9
20200922100518 77 64 1.7 5.2 0.00 0.00 0.00 56 1015.1
20200922095611 76 102 2.6 6.1 0.00 0.00 0.00 57 1015.2
20200922094711 76 64 2.6 5.2 0.00 0.00 0.00 59 1015.2
20200922093829 75 40 2.6 6.1 0.00 0.00 0.00 61 1015.2
20200922092940 74 36 2.6 4.3 0.00 0.00 0.00 61 1015.3
20200922092011 74 25 3.5 5.2 0.00 0.00 0.00 63 1015.1
20200922091111 73 2 3.5 6.1 0.00 0.00 0.00 64 1015.2
20200922090212 72 33 2.6 7.0 0.00 0.00 0.00 64 1015.2
20200922085311 72 349 2.6 5.2 0.00 0.00 0.00 65 1015.1
20200922084414 72 349 3.5 5.2 0.00 0.00 0.00 65 1015.1
20200922083517 71 359 3.5 6.1 0.00 0.00 0.00 65 1014.9
20200922082616 71 12 2.6 6.1 0.00 0.00 0.00 66 1015.0
20200922081711 70 2 2.6 5.2 0.00 0.00 0.00 67 1014.8
20200922080811 70 359 2.6 5.2 0.00 0.00 0.00 67 1014.9
20200922075912 70 353 2.6 4.3 0.00 0.00 0.00 68 1014.8
20200922075013 69 355 3.5 5.2 0.00 0.00 0.00 68 1014.7
20200922074112 69 358 2.6 6.1 0.00 0.00 0.00 68 1014.7
20200922073211 69 2 2.6 4.3 0.00 0.00 0.00 68 1014.7
20200922072317 69 15 2.6 4.3 0.00 0.00 0.00 68 1014.6
20200922071413 69 17 2.6 4.3 0.00 0.00 0.00 68 1014.6
20200922070512 68 15 2.6 6.1 0.00 0.00 0.00 69 1014.6
20200922065612 68 21 3.5 6.1 0.00 0.00 0.00 69 1014.4
20200922064711 68 15 3.5 6.1 0.00 0.00 0.00 68 1014.4
20200922063812 68 22 2.6 5.2 0.00 0.00 0.00 68 1014.4
20200922062911 68 24 2.6 6.1 0.00 0.00 0.00 68 1014.3
20200922062011 68 14 2.6 5.2 0.00 0.00 0.00 68 1014.3
20200922061111 68 12 1.7 5.2 0.00 0.00 0.00 67 1014.3
20200922060211 69 360 1.7 2.6 0.00 0.00 0.00 67 1014.3
20200922055310 69 12 1.7 4.3 0.00 0.00 0.00 67 1014.2
20200922054411 69 20 1.7 3.5 0.00 0.00 0.00 66 1014.2
20200922053513 70 10 1.7 4.3 0.00 0.00 0.00 66 1014.1
20200922052610 70 360 1.7 3.5 0.00 0.00 0.00 65 1014.1
20200922051711 70 51 2.6 4.3 0.00 0.00 0.00 65 1014.1
20200922050811 70 29 2.6 5.2 0.00 0.00 0.00 64 1014.0
20200922045911 70 20 2.6 4.3 0.00 0.00 0.00 64 1013.9
20200922045011 70 19 2.6 4.3 0.00 0.00 0.00 64 1013.9
20200922044110 71 30 2.6 4.3 0.00 0.00 0.00 64 1013.9
20200922043210 71 10 3.5 5.2 0.00 0.00 0.00 63 1013.9
20200922042310 71 16 3.5 7.8 0.00 0.00 0.00 62 1013.9
20200922041413 71 42 2.6 6.1 0.00 0.00 0.00 62 1013.9
20200922040512 71 60 2.6 4.3 0.00 0.00 0.00 62 1013.8
20200922035611 71 55 1.7 5.2 0.00 0.00 0.00 62 1013.8
20200922034711 71 58 1.7 4.3 0.00 0.00 0.00 62 1013.7
20200922033816 71 58 1.7 4.3 0.00 0.00 0.00 62 1013.6
20200922032910 72 48 1.7 4.3 0.00 0.00 0.00 61 1013.9
20200922032010 72 58 2.6 4.3 0.00 0.00 0.00 61 1013.9
20200922031110 72 71 1.7 4.3 0.00 0.00 0.00 61 1013.9
20200922030216 72 60 1.7 3.5 0.00 0.00 0.00 61 1013.9
20200922025310 72 53 2.6 4.3 0.00 0.00 0.00 60 1014.0
20200922024411 72 44 1.7 4.3 0.00 0.00 0.00 60 1014.0
20200922023514 72 23 0.9 4.3 0.00 0.00 0.00 60 1014.1
20200922022613 72 41 1.7 3.5 0.00 0.00 0.00 60 1014.1
20200922021711 72 55 3.5 7.0 0.00 0.00 0.00 60 1014.2
20200922020811 72 53 3.5 7.0 0.00 0.00 0.00 59 1014.2
20200922015915 73 43 2.6 5.2 0.00 0.00 0.00 60 1014.2
20200922015018 73 42 2.6 4.3 0.00 0.00 0.00 60 1014.2
20200922014110 73 42 1.7 3.5 0.00 0.00 0.00 60 1014.3
20200922013210 73 53 1.7 4.3 0.00 0.00 0.00 60 1014.4
20200922012310 73 55 1.7 4.3 0.00 0.00 0.00 60 1014.4
20200922011410 73 51 1.7 4.3 0.00 0.00 0.00 59 1014.5
20200922010510 74 39 1.7 3.5 0.00 0.00 0.00 56 1014.5
20200922005610 74 45 1.7 3.5 0.00 0.00 0.00 55 1014.4
20200922004710 74 33 1.7 3.5 0.00 0.00 0.00 54 1014.5
20200922003811 74 19 2.6 3.5 0.00 0.00 0.00 54 1014.6
20200922002910 74 13 1.7 4.3 0.00 0.00 0.00 54 1014.7
20200922002020 74 18 1.7 3.5 0.00 0.00 0.00 54 1014.6
20200922001110 74 23 1.7 5.2 0.00 0.00 0.00 54 1014.6
20200922000210 74 18 2.6 4.3 0.00 0.00 0.00 55 1014.6
20200921235310 74 16 2.6 5.2 0.00 0.00 0.00 55 1014.7
20200921234410 74 18 1.7 4.3 0.00 0.00 0.00 54 1014.7
20200921233510 74 360 2.6 4.3 0.00 0.00 0.00 54 1014.8
20200921232610 74 357 2.6 4.3 0.00 0.00 0.00 54 1014.9
20200921231710 75 11 2.6 4.3 0.00 0.00 0.00 54 1014.8
20200921230810 75 22 2.6 4.3 0.00 0.00 0.00 53 1014.8
20200921225912 75 4 2.6 4.3 0.00 0.00 0.00 53 1014.8
20200921225010 76 345 2.6 5.2 0.00 0.00 0.00 52 1014.8
20200921224110 76 356 3.5 7.0 0.00 0.00 0.00 52 1014.9
20200921223216 76 340 3.5 7.8 0.00 0.00 0.00 52 1014.9
20200921222309 76 340 3.5 6.1 0.00 0.00 0.00 52 1014.9
20200921221409 76 339 2.6 6.1 0.00 0.00 0.00 53 1014.9
20200921220510 75 343 0.0 7.0 0.00 0.00 0.00 59 1014.9
20200921215610 74 0 0.0 0.0 0.00 0.00 0.00 70 1015.0
20200921214710 74 0 0.0 0.0 0.00 0.00 0.00 71 1015.0
20200921213810 74 256 0.0 1.7 0.00 0.00 0.00 71 1015.0
20200921212910 74 258 0.9 2.6 0.00 0.00 0.00 71 1014.8
20200921212011 74 228 0.9 2.6 0.00 0.00 0.00 70 1014.8